GFSWCAN_prec_cloud_291.txt.gz
Cloud_Cover
100 100 100 100 89 100 86 99 100 100 100 100 100 100 100 53 5 7 34 64 35 100 100 93 46 56 99 100 95 59 82 66 100 100 100 100 100 91 100 82 100 100 100 100 100 100 91 98 100 100 100 100 100 100
100 100 100 100 99 94 96 22 99 100 100 99 85 55 90 96 96 82 10 44 90 100 100 100 46 70 72 61 100 100 98 87 98 100 5 86 99 93 44 100 100 90 100 100 100 100 100 100 100 100 100 100 100 100
100 100 100 96 91 99 84 93 80 100 100 100 61 6 36 99 100 58 28 30 97 100 77 57 72 8 28 18 68 100 100 100 100 100 100 100 100 90 100 90 100 81 97 100 100 100 100 100 100 100 100 100 100 100
85 94 85 100 100 71 96 93 82 69 33 99 92 8 82 100 100 42 42 33 97 100 100 30 5 5 5 56 100 100 100 100 100 100 100 100 100 88 91 99 100 100 100 100 100 100 100 100 100 100 100 100 100 100
100 98 26 100 95 11 98 79 14 63 5 36 5 6 98 89 92 41 33 22 7 96 96 71 31 19 44 98 100 100 100 100 100 100 100 100 89 100 100 98 100 100 100 100 98 100 100 100 100 100 100 100 100 100
36 94 51 100 100 53 31 87 6 18 44 97 25 82 43 40 7 48 93 81 96 100 100 100 67 83 75 100 100 100 100 100 100 100 100 100 100 100 100 100 100 100 100 100 100 100 100 100 100 100 100 100 100 100
100 100 96 100 13 20 38 96 6 5 5 13 86 81 46 15 29 85 89 100 100 100 100 100 100 100 100 100 100 100 100 100 100 100 100 100 100 100 100 100 100 100 100 97 100 100 100 100 100 100 100 100 100 100
78 91 100 99 30 74 100 100 52 5 5 75 57 7 6 24 21 87 99 100 100 100 100 100 89 56 68 99 99 100 100 100 100 100 100 100 100 100 100 100 100 100 100 100 100 100 100 100 100 100 100 100 100 100
81 5 14 5 86 100 100 100 28 5 5 89 7 10 98 92 100 100 93 100 100 100 100 100 100 100 100 100 100 100 100 100 100 100 100 100 100 100 100 100 100 100 100 100 100 100 100 100 100 100 100 100 100 100
100 99 5 97 100 100 100 100 11 5 70 42 15 100 100 100 100 85 91 100 100 99 100 100 100 100 100 100 100 100 95 100 100 100 100 100 100 100 100 100 100 100 100 100 100 100 100 100 100 100 100 100 100 79
100 59 24 100 100 100 100 100 86 71 70 85 97 96 87 78 94 100 100 99 100 100 99 100 100 100 100 100 100 100 100 100 100 100 100 100 100 100 100 100 100 100 100 100 100 100 100 100 100 100 100 100 85 51
100 100 100 99 99 100 100 100 90 99 95 85 82 68 72 100 91 88 86 98 99 99 97 100 100 100 100 100 100 100 100 100 100 100 100 100 100 100 100 100 100 100 100 100 100 100 100 100 100 80 34 17 6 5
100 100 91 100 100 100 100 100 100 60 81 98 78 100 89 88 95 83 89 98 99 96 98 100 100 100 100 100 100 100 100 100 100 100 100 100 100 100 100 100 100 100 100 100 100 100 100 96 81 18 5 5 5 5
100 100 100 85 100 100 100 99 100 93 100 100 100 84 78 80 59 6 22 85 82 91 100 100 100 100 100 100 100 100 100 100 100 100 100 100 100 100 100 100 100 100 100 100 100 100 100 91 10 6 13 6 5 5
100 100 100 100 100 100 100 100 100 100 100 100 100 70 78 31 10 81 100 90 90 100 100 100 100 100 100 100 100 100 100 100 100 100 100 100 100 100 100 100 100 100 100 100 100 100 100 47 24 20 5 5 5 5
100 100 92 100 100 100 100 100 100 100 100 100 99 96 83 94 80 97 97 94 98 100 100 100 100 100 100 100 100 100 100 100 100 100 100 100 100 100 100 100 100 100 100 100 100 100 90 44 36 8 14 15 5 5
100 100 100 100 100 100 100 100 100 88 22 100 100 81 91 92 85 82 91 99 100 100 100 100 100 92 100 100 100 100 100 100 100 100 100 100 100 100 100 100 100 100 100 97 100 100 99 33 16 22 35 5 5 13
100 100 100 100 100 100 100 100 98 96 99 74 72 70 98 91 94 96 99 100 100 100 100 100 100 100 100 100 94 96 100 100 100 100 100 100 100 100 100 100 100 100 100 97 100 100 66 8 41 15 5 26 11 55
100 100 100 100 100 100 100 92 76 59 62 87 98 99 100 97 98 93 99 100 100 100 100 100 100 100 100 100 100 94 100 100 100 100 100 100 100 100 100 100 100 100 100 100 100 66 25 23 5 5 5 5 40 95
100 100 100 100 100 100 41 93 91 82 93 95 99 99 100 100 100 100 100 100 100 100 100 100 100 100 100 100 100 100 100 100 100 100 100 100 100 100 100 100 100 100 100 100 100 57 39 13 5 5 5 19 90 98
100 100 100 100 100 36 37 96 97 88 100 99 100 100 100 100 100 100 100 100 100 100 100 100 100 100 100 100 100 100 100 100 100 100 100 100 100 100 100 100 100 100 100 100 100 90 87 58 17 18 17 98 100 100
100 100 100 99 39 23 45 98 98 100 89 99 100 100 100 100 100 100 100 100 100 100 100 100 100 100 100 100 100 91 88 90 88 100 100 100 100 100 100 100 100 100 100 100 94 88 87 99 53 40 66 91 100 88
100 100 78 5 18 59 88 96 91 89 98 69 98 92 90 100 100 100 100 100 100 100 100 100 100 100 100 100 97 100 100 100 100 100 100 100 100 100 100 100 100 100 100 100 92 92 99 98 74 93 76 97 72 20
33 8 29 46 61 86 80 67 90 98 99 98 95 23 60 90 100 100 100 100 100 100 100 100 100 100 92 99 86 100 92 100 100 100 100 100 100 100 100 100 100 100 100 100 94 100 100 90 94 100 97 100 100 100
53 33 32 85 81 53 73 97 96 97 93 75 88 80 100 100 100 100 100 100 100 100 100 100 100 100 100 99 71 90 100 98 100 100 100 100 100 100 100 100 100 100 100 100 100 100 100 92 100 100 99 100 98 84
93 67 97 100 100 100 100 100 100 100 100 100 97 100 100 100 100 100 100 100 100 96 100 100 100 100 100 85 99 100 100 100 100 100 100 100 100 100 100 100 100 100 100 100 100 100 100 100 89 73 67 90 100 50
100 100 100 100 100 100 100 100 100 100 100 99 100 100 100 87 89 98 100 96 100 100 100 96 98 99 96 100 100 100 100 100 100 100 100 100 100 100 100 100 100 100 100 100 100 100 100 98 76 61 62 96 47 73
83 100 100 100 100 100 100 97 93 87 92 93 100 100 100 100 99 95 98 100 100 99 84 100 100 91 98 99 100 100 100 99 100 100 100 100 100 100 100 100 100 100 100 100 100 100 100 85 79 96 93 97 49 5
65 62 91 90 100 100 100 100 100 100 91 100 100 100 99 96 97 96 96 92 90 91 96 100 95 100 100 99 100 100 100 100 100 100 100 100 100 100 100 100 100 100 100 100 100 100 100 97 100 100 100 91 30 45
99 96 100 100 100 100 100 100 100 100 100 100 97 89 84 91 95 93 89 66 70 96 100 99 96 96 96 98 100 100 100 100 100 100 100 100 100 100 100 100 100 100 100 100 100 100 100 100 100 100 100 68 64 62
100 100 100 100 100 100 100 100 100 100 100 94 100 100 100 97 83 92 98 99 88 65 82 59 76 93 88 100 100 100 100 100 100 100 100 100 100 100 100 100 100 100 100 100 100 100 100 100 100 100 65 70 71 87
100 100 100 100 100 100 100 96 94 99 100 100 100 100 99 86 74 52 53 42 50 56 88 83 99 100 100 100 100 100 100 100 100 100 100 100 100 100 100 100 100 100 100 100 100 100 100 100 100 78 81 88 78 70
100 97 100 100 98 100 100 96 90 99 95 95 92 90 78 78 96 77 70 73 92 97 99 98 100 100 100 100 100 100 100 100 100 100 100 100 100 100 100 100 100 100 100 100 100 100 100 90 51 74 78 66 69 76

GFSWCAN_prec_cloud_294.txt.gz
Cloud_Cover
100 100 100 100 100 100 100 100 100 100 98 100 100 100 100 100 100 96 50 100 100 100 89 59 33 59 85 99 100 78 94 89 100 94 85 97 100 95 38 4 72 100 100 99 100 100 74 98 100 100 100 100 100 100
100 100 100 100 100 100 100 96 94 58 14 100 100 100 100 100 100 100 87 95 100 100 29 10 11 22 77 66 100 76 90 72 100 100 90 95 91 47 32 94 5 92 75 100 100 100 100 100 100 100 100 100 100 100
100 100 100 100 100 100 58 23 100 99 100 5 29 100 100 100 100 100 100 100 100 90 17 12 16 3 4 27 30 100 79 96 65 100 100 100 100 64 93 33 100 76 16 100 100 100 100 100 100 100 100 100 100 100
100 100 100 100 58 49 48 100 99 26 37 5 25 92 100 100 98 86 86 96 100 100 100 16 3 5 30 36 54 100 100 100 100 100 100 100 100 94 100 100 100 91 91 87 79 47 98 98 100 100 100 100 100 100
100 90 80 50 34 63 89 84 95 69 55 77 6 99 100 19 76 33 76 94 34 81 78 28 4 18 30 97 100 100 100 100 100 100 100 100 82 99 99 98 100 100 100 100 100 100 100 100 100 100 100 100 100 100
100 77 99 6 97 97 72 100 91 76 78 95 5 5 5 67 100 50 97 84 100 100 100 100 75 76 82 100 94 100 100 100 100 100 100 100 100 100 100 100 100 100 100 100 100 100 100 100 100 100 100 100 100 100
100 86 59 61 100 96 97 76 99 36 100 34 5 84 100 100 98 92 87 100 100 91 100 82 74 92 16 30 83 89 100 100 100 100 100 100 100 100 100 100 100 100 100 100 100 99 100 100 100 100 100 100 100 100
81 83 13 96 96 33 5 91 100 100 100 5 5 56 98 44 80 63 93 96 100 100 100 100 63 84 74 59 86 81 100 100 100 100 100 100 100 100 100 100 100 100 100 100 100 100 100 100 100 100 100 100 100 100
48 85 100 100 89 5 88 100 100 100 99 88 31 5 10 98 100 98 100 100 100 100 100 100 98 96 70 98 99 61 100 97 100 86 100 100 100 100 100 100 100 100 100 100 100 100 100 100 100 100 100 100 100 100
100 100 74 98 62 51 95 89 100 100 100 80 34 97 99 98 99 76 91 100 100 99 100 100 91 96 94 91 100 72 88 100 100 100 100 100 100 100 100 100 100 100 100 100 100 100 100 100 100 100 100 100 100 100
100 97 100 100 97 88 100 96 100 100 100 90 100 86 91 67 96 100 93 87 77 85 100 88 87 98 100 98 96 94 100 100 100 87 99 100 100 100 100 100 100 100 100 100 100 100 100 100 100 100 100 100 96 84
100 100 100 100 89 93 100 100 100 100 100 88 78 67 92 99 100 97 100 77 93 92 80 83 85 100 98 83 100 100 100 100 100 100 100 100 100 100 100 100 100 100 100 100 100 100 100 100 100 100 94 64 61 38
100 100 100 100 99 95 100 100 100 100 100 100 88 97 100 97 98 100 64 100 99 58 65 95 99 100 98 100 100 100 100 100 100 100 100 100 100 100 100 100 100 100 100 100 100 100 100 100 93 72 60 68 42 25
100 100 100 100 100 100 100 100 100 100 100 100 100 100 87 85 76 17 69 99 86 71 99 100 95 96 100 100 100 100 100 100 100 100 100 100 100 100 100 100 100 100 100 100 100 100 100 100 84 78 85 44 5 53
100 100 100 100 100 100 100 100 100 100 100 100 100 83 58 11 5 33 84 95 80 82 93 94 100 100 100 100 100 100 100 100 100 100 100 100 100 100 100 100 100 100 100 100 100 100 100 100 92 57 64 56 15 50
100 100 100 100 100 100 100 100 100 100 100 100 98 99 69 86 69 97 99 95 93 65 70 95 100 100 100 100 100 100 100 100 100 100 100 100 100 100 100 100 100 100 100 100 100 100 97 66 46 14 62 47 54 36
100 100 100 100 100 100 100 100 100 100 100 100 98 93 93 100 88 97 80 95 78 71 99 100 100 100 81 100 100 100 100 100 100 100 100 100 100 100 100 100 100 100 100 100 100 96 82 53 51 25 44 12 17 44
100 100 100 100 100 100 100 100 100 100 100 60 95 64 86 87 98 91 98 89 88 91 100 100 100 100 100 99 100 100 100 98 98 100 100 100 100 100 100 100 100 100 100 100 100 100 100 68 45 45 50 40 57 67
98 100 100 100 100 100 100 100 100 100 82 97 98 99 94 86 98 90 100 88 100 100 100 100 100 100 100 100 100 100 100 95 100 96 100 100 100 100 100 100 100 100 100 100 100 100 100 98 53 42 44 22 5 20
100 100 100 100 100 100 100 100 98 86 80 95 77 93 93 98 90 53 93 99 100 99 97 100 100 100 100 100 100 100 89 100 100 89 98 94 100 100 100 100 100 100 100 100 100 100 100 100 72 56 39 17 5 5
100 100 100 100 100 100 100 100 96 84 82 89 71 58 100 80 88 100 94 100 100 99 100 100 100 100 100 100 100 100 90 90 98 100 100 100 100 100 100 100 100 100 100 100 100 100 100 100 100 97 72 41 75 76
100 100 100 100 100 100 99 84 82 80 63 78 87 89 95 100 100 98 100 100 100 100 100 100 100 100 100 100 100 100 95 100 100 100 99 100 100 100 100 100 100 100 100 100 100 100 100 100 100 100 100 76 82 48
100 100 100 100 100 90 79 72 68 69 94 80 71 82 67 80 74 92 100 100 100 100 100 100 100 100 100 100 100 100 100 94 90 93 99 96 100 100 100 100 100 100 100 100 100 100 100 100 100 100 100 88 65 44
100 100 100 96 58 75 70 68 68 66 64 74 78 45 40 77 100 100 100 100 100 100 100 100 100 100 100 100 100 92 89 82 94 100 94 100 100 100 100 100 100 100 100 100 100 100 100 100 100 100 100 82 72 69
90 32 18 100 82 29 67 95 87 81 88 71 86 100 84 100 100 100 100 100 100 100 100 100 99 99 97 99 98 90 99 95 95 100 100 100 100 100 100 100 100 100 100 100 100 100 100 100 100 100 100 91 79 77
34 43 65 100 99 90 100 100 100 100 100 100 100 83 100 100 100 100 100 100 100 100 100 89 73 70 87 87 94 100 100 100 100 100 100 100 100 100 100 100 100 100 100 100 100 100 100 100 100 100 99 98 100 67
97 99 100 99 100 100 100 100 100 99 97 100 100 100 100 100 100 100 96 96 100 98 83 70 67 76 88 95 84 94 100 100 100 100 100 100 100 100 100 100 100 100 100 100 100 100 100 100 100 100 99 100 77 65
100 96 96 87 100 100 100 100 92 100 100 100 100 100 98 100 93 86 95 98 86 93 97 84 51 73 78 99 100 100 100 100 100 100 100 100 100 100 100 100 100 100 100 100 100 100 100 100 100 100 100 100 79 66
34 67 55 73 96 100 100 100 100 100 100 100 100 100 100 100 100 100 97 76 58 87 93 65 76 75 82 96 98 99 96 100 100 100 100 100 100 100 100 100 100 100 100 100 100 100 100 100 100 100 100 87 63 66
100 100 100 100 100 100 100 100 100 100 100 98 99 100 100 99 90 74 96 78 74 91 78 91 79 94 94 95 100 100 100 100 100 100 100 100 100 100 100 100 100 100 100 100 100 100 100 100 100 100 95 86 66 68
99 100 100 100 100 100 100 100 99 98 100 100 100 100 100 100 100 99 89 73 77 86 92 83 54 75 82 74 80 95 100 100 100 100 100 100 100 100 100 100 100 100 100 100 100 100 100 100 100 97 84 82 92 86
100 100 100 100 100 93 99 95 100 100 100 100 100 100 100 100 100 100 98 82 66 50 88 99 95 37 56 76 95 100 100 100 100 100 100 100 100 100 100 100 100 100 100 100 100 100 100 100 89 69 94 100 100 100
86 97 99 95 95 99 99 98 98 100 100 100 100 100 100 100 100 91 94 100 100 100 99 100 87 85 80 96 99 100 100 100 100 100 100 100 100 100 100 100 100 100 100 100 100 100 100 85 86 100 100 99 94 93

GFSWCAN_prec_cloud_297.txt.gz
Cloud_Cover
100 100 100 100 100 75 99 100 100 100 100 95 100 10 7 61 94 100 98 100 100 100 13 5 33 97 91 90 100 61 76 57 94 90 100 97 75 86 44 64 98 100 100 97 99 100 36 90 100 100 100 95 95 100
100 100 100 100 98 85 100 100 100 35 83 25 100 93 5 5 99 100 67 73 100 100 60 3 5 5 22 97 100 100 53 70 100 100 100 100 100 87 30 57 100 84 100 100 100 100 100 86 100 100 100 94 97 77
100 100 100 100 100 100 100 100 100 100 94 92 98 18 14 47 100 100 64 96 100 100 20 14 5 5 5 5 99 100 97 100 100 100 100 92 100 85 100 47 70 98 100 99 98 79 100 100 100 100 100 100 100 98
100 100 100 100 100 100 100 97 73 65 5 35 100 100 59 37 81 18 38 87 88 100 98 5 3 5 6 37 99 100 100 100 100 100 100 100 100 96 83 80 100 100 100 100 100 100 100 100 100 100 99 100 100 100
100 100 100 100 95 98 96 9 53 91 5 91 100 92 16 10 15 72 100 79 53 100 66 22 4 16 59 100 100 94 100 100 100 100 100 100 100 100 100 100 100 100 100 100 100 100 100 100 100 91 94 100 100 100
100 100 100 98 14 51 100 100 61 85 60 100 100 100 19 67 100 100 92 100 100 100 100 97 72 84 74 10 23 70 100 98 100 100 100 100 100 100 100 100 100 100 100 100 100 100 100 100 100 100 100 100 100 100
100 100 99 33 100 100 100 35 100 92 100 100 100 100 59 35 85 97 58 57 100 78 96 76 62 76 6 5 25 90 100 99 100 100 100 100 100 100 100 100 100 100 100 100 100 99 100 100 100 100 100 100 100 100
100 100 100 98 100 99 96 100 92 100 100 100 100 100 93 23 71 96 96 100 89 100 100 96 36 65 18 39 63 88 99 100 100 100 100 100 100 100 100 100 100 100 100 100 100 100 100 100 100 100 100 100 100 100
100 100 100 100 100 100 100 98 98 98 100 100 100 100 64 87 100 99 96 100 100 100 100 98 93 69 95 60 64 44 88 88 100 100 100 98 100 100 100 100 100 100 100 100 100 100 100 100 100 100 100 100 100 44
100 100 100 100 100 100 85 24 100 100 100 100 100 100 100 76 98 63 90 100 100 100 98 93 90 83 87 81 81 82 100 100 100 100 100 100 100 100 100 100 100 100 100 100 100 100 100 100 100 100 84 41 50 51
100 100 100 100 100 66 94 99 100 100 100 100 100 100 100 98 94 98 98 89 94 94 83 74 78 92 89 97 100 100 100 94 100 100 100 100 100 100 100 100 100 100 100 100 100 100 100 92 37 52 50 50 64 79
100 100 100 100 100 100 100 100 100 100 100 100 100 100 100 98 100 96 89 98 94 62 96 74 98 97 90 98 100 100 99 100 100 100 100 100 100 100 100 100 100 100 100 100 100 94 58 13 49 65 67 81 88 67
100 100 100 100 100 100 100 100 100 100 100 100 100 100 100 100 98 94 81 68 97 86 90 83 93 100 92 100 100 100 100 100 100 100 100 100 100 100 100 100 100 100 100 91 84 63 53 56 83 67 74 85 63 41
72 100 100 100 100 100 100 100 100 100 100 100 100 100 100 100 100 73 36 100 88 88 95 88 90 98 90 100 99 100 100 100 100 100 100 100 100 100 100 100 100 100 100 87 65 55 46 50 67 92 94 73 62 83
23 99 100 100 100 100 100 100 100 100 100 100 100 100 100 100 100 90 92 96 100 100 95 81 84 100 100 100 100 100 100 100 100 100 100 100 100 100 100 100 100 100 100 100 99 100 100 100 100 82 94 68 80 54
35 99 100 100 100 100 100 100 100 100 100 100 100 100 100 100 86 99 98 100 91 95 80 66 78 86 100 100 100 100 100 100 100 100 100 98 100 100 100 100 100 100 100 100 100 100 100 100 97 63 88 68 62 12
62 100 99 100 100 100 100 100 100 100 100 100 100 100 100 96 100 100 96 76 84 94 88 74 96 95 92 100 100 100 100 100 100 100 99 100 100 100 100 100 100 100 100 100 100 100 100 97 63 73 55 51 24 32
100 100 100 100 100 100 100 100 100 100 100 100 100 100 95 92 100 98 91 99 80 97 100 100 88 86 100 100 100 100 100 100 100 99 100 100 100 100 100 100 100 100 100 100 100 100 100 100 93 100 87 79 65 85
100 98 100 100 100 100 100 100 100 100 100 100 100 98 100 89 84 73 82 94 100 100 100 92 100 100 100 100 100 100 100 100 100 96 99 96 100 100 100 100 100 100 100 100 100 100 100 100 100 100 100 100 92 86
100 100 100 100 100 100 100 100 100 100 100 93 86 94 87 96 89 85 98 100 100 100 100 100 100 100 100 100 100 100 100 100 100 100 100 100 100 100 100 100 100 100 100 100 100 100 100 100 100 100 100 100 100 100
100 100 100 100 100 100 100 100 100 99 96 78 84 72 86 99 88 95 97 100 100 100 100 100 100 100 100 100 100 100 100 100 100 100 100 100 100 100 100 100 100 100 100 100 100 100 100 100 100 100 100 100 100 100
100 100 100 100 100 100 100 99 98 93 56 79 85 91 100 96 96 91 99 100 100 100 100 100 100 100 100 100 100 100 100 85 83 97 99 99 100 100 100 100 100 100 100 100 100 100 100 100 100 100 100 100 100 100
100 100 100 100 100 100 100 83 70 86 73 61 86 90 78 96 79 90 99 100 100 100 100 100 100 100 100 100 100 100 100 100 100 100 96 97 100 100 100 100 100 100 100 100 100 100 100 100 100 100 100 100 100 100
100 100 100 100 93 98 68 87 74 80 76 78 98 67 61 73 94 99 100 100 100 100 100 100 100 100 100 100 100 100 100 100 97 94 82 100 100 100 100 100 100 100 100 100 100 100 100 100 100 100 100 100 100 99
100 94 95 97 67 35 68 100 99 73 68 84 99 61 95 100 100 100 100 100 100 100 100 100 100 100 100 100 100 100 100 100 100 100 100 100 100 100 100 100 100 100 100 100 100 100 100 100 100 100 100 100 100 96
26 48 45 66 83 89 99 96 100 100 100 100 95 100 100 100 100 100 100 100 100 100 100 100 100 100 100 100 100 100 100 100 100 100 100 100 100 100 100 100 100 100 100 100 100 100 100 100 100 100 100 100 96 85
61 96 100 100 100 97 100 100 100 100 100 100 100 100 100 100 100 100 100 100 100 100 100 100 100 95 86 80 81 76 94 88 87 98 100 100 100 100 100 100 100 100 100 100 100 100 100 100 100 100 100 90 83 81
64 80 83 89 92 98 100 100 100 100 100 100 100 100 100 100 100 100 100 100 100 100 100 90 82 94 99 84 85 99 99 100 100 100 100 100 100 100 100 100 100 100 100 100 100 100 100 100 100 100 100 100 100 80
41 57 50 100 100 100 100 100 100 100 100 100 100 100 100 100 100 100 100 100 100 100 100 88 49 44 72 78 82 74 86 95 100 97 100 100 100 100 100 100 100 100 100 100 100 100 100 100 100 100 100 100 100 100
100 96 100 100 100 100 100 100 100 100 100 100 100 100 100 100 100 100 100 100 100 100 100 90 98 100 99 99 86 100 100 100 100 100 100 100 100 100 100 100 100 100 100 100 100 100 100 100 100 100 100 100 100 91
100 100 100 100 98 97 100 100 100 100 100 100 100 100 99 100 100 100 100 100 100 98 83 86 61 84 94 98 99 100 100 100 100 100 100 100 100 100 100 100 100 100 100 100 100 100 100 100 100 100 100 92 99 84
99 99 100 100 100 100 100 100 100 100 100 100 100 100 100 100 99 95 97 100 93 93 95 100 100 100 84 96 99 100 100 100 100 100 100 100 100 100 100 100 100 100 100 100 100 100 100 99 93 64 69 98 100 100
100 100 100 100 100 100 100 99 97 98 100 100 100 100 100 100 100 97 96 100 100 100 100 100 100 100 100 100 100 100 100 100 100 100 100 100 100 100 100 100 100 100 100 100 100 91 50 42 97 100 100 100 100 100

GFSWCAN_prec_cloud_303.txt.gz
Cloud_Cover
100 100 100 100 95 100 100 100 100 100 100 100 100 100 100 100 100 96 83 100 96 100 75 11 17 100 100 100 69 40 76 59 100 98 93 22 100 11 63 63 94 38 95 84 100 99 69 88 89 99 97 100 67 53
100 100 100 100 99 95 83 70 96 100 100 100 100 100 100 100 100 100 99 100 95 100 83 66 62 17 11 40 98 100 66 95 90 90 80 97 99 91 74 99 98 92 100 100 96 100 100 97 100 100 100 98 97 86
97 100 100 100 100 100 100 91 94 20 92 100 100 100 100 99 100 100 100 100 100 100 59 77 64 66 5 6 12 100 99 78 77 86 100 100 100 100 95 90 78 100 100 100 100 98 100 100 100 100 99 100 100 95
100 99 100 100 100 100 100 100 98 100 100 73 100 97 60 69 100 100 100 100 100 100 100 15 21 84 5 5 42 75 70 95 100 100 100 100 97 70 96 91 99 100 100 100 100 100 100 100 100 100 97 96 81 22
90 97 100 100 100 100 100 100 100 100 100 100 100 95 100 100 100 100 100 100 100 100 100 76 100 12 10 25 80 88 100 100 100 100 100 100 100 100 100 89 100 100 100 100 100 96 89 100 100 100 100 99 88 93
100 100 100 100 100 100 100 100 100 94 96 48 23 100 100 100 100 100 100 100 100 100 100 100 84 41 47 8 12 76 100 100 100 100 100 91 100 100 100 100 100 100 100 93 94 100 100 100 98 85 100 100 100 100
100 100 100 100 100 100 100 100 100 100 98 19 5 9 100 98 100 100 100 100 100 100 100 100 100 65 96 100 62 45 100 98 99 100 99 100 100 100 93 87 100 97 45 21 70 96 100 100 100 100 100 100 100 100
7 91 100 99 91 96 100 100 100 100 100 100 100 95 100 95 100 100 100 100 100 100 100 100 100 48 54 75 54 89 80 97 94 95 93 98 51 97 100 89 94 83 93 100 100 100 100 100 92 96 100 97 100 100
99 100 100 100 100 87 100 100 100 100 100 100 78 86 75 100 100 100 100 100 100 100 100 100 100 100 100 85 91 100 100 88 74 90 90 68 58 82 100 100 100 100 100 100 100 100 91 100 100 92 70 70 66 71
100 100 100 100 100 100 67 100 100 100 100 100 100 83 80 100 100 100 100 100 100 100 100 100 100 100 100 93 99 100 87 73 60 33 42 98 44 85 98 100 100 100 100 99 100 90 47 54 6 5 5 5 5 18
100 100 100 100 100 70 5 100 100 100 100 100 83 87 96 100 100 100 100 100 100 100 100 100 100 100 88 100 100 98 100 86 96 62 78 36 86 100 100 98 100 100 100 100 100 44 54 5 5 9 17 16 16 5
100 98 99 100 100 84 5 100 100 100 100 80 84 100 100 100 100 100 100 100 100 100 100 100 100 96 99 100 100 100 100 95 100 90 89 80 100 100 100 99 100 100 100 79 61 47 25 24 39 48 33 42 55 50
100 98 26 100 100 100 75 100 100 100 100 100 100 100 100 94 100 100 100 100 100 100 100 100 100 100 99 100 100 100 100 100 100 100 100 100 100 100 100 100 100 100 98 66 70 61 98 100 99 94 48 22 25 41
39 100 100 100 100 100 93 100 100 100 100 100 100 100 97 95 100 99 100 100 100 100 100 100 100 100 100 100 100 100 100 100 100 100 100 100 100 100 100 100 100 100 100 88 68 100 100 100 100 100 70 41 46 68
88 92 94 100 100 96 100 100 100 100 100 100 100 100 100 100 100 100 100 100 100 100 99 98 99 88 100 100 100 100 100 100 100 100 100 100 100 100 100 100 99 100 100 100 100 100 100 100 95 100 86 77 93 48
100 80 93 100 100 100 100 100 100 100 100 100 100 100 100 100 100 100 100 97 92 91 95 74 84 80 100 100 100 100 100 100 100 100 100 100 100 100 98 99 99 98 98 93 100 100 100 100 100 100 100 83 100 64
100 100 100 100 100 100 100 100 100 100 100 100 100 100 100 100 100 100 100 99 98 100 87 67 98 100 100 100 100 100 100 100 100 100 100 100 100 94 97 94 99 100 100 100 100 100 100 100 100 100 100 100 100 99
100 100 100 100 100 100 100 100 100 100 100 100 100 100 100 100 96 93 93 76 87 95 71 40 68 100 100 100 100 100 100 100 100 100 100 100 100 98 85 91 99 100 100 100 100 100 100 100 100 100 100 100 100 100
100 100 100 100 100 100 100 100 100 100 100 100 100 100 100 80 90 82 84 96 97 98 91 99 100 100 100 100 100 100 100 100 100 100 100 100 98 100 83 97 100 100 100 100 100 100 100 100 100 100 100 100 100 100
100 100 100 100 100 100 100 100 100 100 100 100 100 100 85 87 95 99 100 99 100 100 99 91 100 100 100 100 100 100 100 95 100 100 100 96 74 98 87 100 100 100 100 100 100 100 100 100 100 100 100 100 100 100
100 100 100 100 100 100 100 100 100 100 100 100 100 82 77 96 85 78 83 100 100 96 86 99 100 100 100 100 100 100 100 100 99 94 98 92 96 100 97 93 100 100 98 100 100 100 100 100 100 100 100 100 100 100
100 100 99 99 100 100 100 100 100 100 100 98 77 94 100 90 97 91 98 100 87 49 98 100 100 100 100 100 100 100 100 100 100 100 100 100 100 100 100 100 100 100 100 100 100 100 100 100 100 100 100 100 100 100
96 100 100 100 100 100 100 100 100 100 79 55 48 36 67 90 74 80 88 90 89 90 100 100 100 100 100 100 100 100 100 100 100 100 100 100 100 100 100 100 91 100 100 100 100 100 100 100 100 100 100 100 100 94
99 100 100 100 98 100 100 84 53 53 74 29 94 68 39 82 81 71 94 96 100 100 100 100 100 100 100 100 100 100 100 100 100 100 99 95 96 99 99 100 100 100 100 100 100 100 100 100 100 100 100 82 99 99
43 19 35 54 75 33 57 75 85 21 64 67 65 47 65 69 96 100 99 100 100 100 100 100 100 100 100 100 100 91 99 82 95 97 87 80 81 80 90 89 100 100 100 100 100 100 100 100 100 100 98 100 94 95
17 31 14 89 55 17 75 100 100 100 100 92 74 74 91 85 95 94 100 100 100 100 100 100 100 98 100 100 98 88 72 59 93 97 78 59 58 85 98 100 100 100 100 100 100 100 100 100 100 100 100 96 100 86
40 56 66 78 81 74 70 77 95 86 98 100 100 100 100 100 100 100 99 100 100 100 99 100 100 100 100 100 99 71 50 58 88 78 69 90 100 100 100 100 100 100 100 100 100 100 100 100 100 100 100 100 100 100
59 88 32 39 83 76 44 83 100 100 100 100 100 100 100 100 100 100 100 100 100 100 82 89 83 75 100 90 89 98 69 71 84 93 100 100 100 100 100 100 100 100 100 100 100 100 100 100 100 100 100 100 93 86
52 63 58 53 89 84 71 81 96 100 99 100 100 100 100 96 90 92 98 92 94 100 87 95 100 99 72 53 52 62 86 100 100 100 100 100 100 100 100 100 100 100 100 100 100 100 100 100 100 100 100 99 100 100
88 85 99 99 100 100 100 100 100 100 100 100 100 99 100 100 100 84 87 100 100 99 83 90 71 93 90 89 59 66 98 100 100 99 100 100 100 100 100 100 100 100 100 100 100 100 100 100 100 100 100 100 100 100
98 100 100 100 100 100 100 100 100 100 100 99 99 100 100 99 86 94 93 84 84 80 82 84 88 61 87 96 99 92 44 75 64 67 95 99 100 100 100 100 100 100 100 100 100 100 100 100 100 100 100 100 100 100
90 95 85 97 78 75 96 98 100 100 99 89 100 95 86 88 89 84 81 68 73 69 65 73 97 85 59 95 98 100 100 99 100 100 100 100 100 100 100 100 100 100 100 100 100 100 100 100 100 100 100 100 100 100
100 100 100 100 100 100 97 60 58 90 88 81 97 87 74 75 91 70 80 88 81 86 88 98 99 100 92 87 91 92 100 100 100 100 100 100 100 100 100 100 100 100 100 100 100 100 100 100 100 96 81 59 99 100